Regional Weather Roundup
Issued by NWS

Home | Current Version | Previous Version | Graphics & Text | Print | Product List | Glossary On
Versions: 1 2 3 4 5 6 7 8 9 10 11 12 13 14 15 16 17 18 19 20 21 22 23 24 25 26 27 28 29 30 31 32 33 34 35 36 37 38 39 40 41 42 43 44 45 46 47 48 49 50
000
ASUS43 KDMX 101806
RWRIA

WEATHER ROUNDUP FOR IOWA
NATIONAL WEATHER SERVICE DES MOINES IA
1200 PM CST SAT DEC 10 2016

NOTE: "FAIR" INDICATES FEW OR NO CLOUDS BELOW 12,000 FEET WITH NO
SIGNIFICANT WEATHER AND/OR OBSTRUCTIONS TO VISIBILITY.

* - THESE STATIONS ARE NOT NWS STATIONS...THUS NOT UNDER NWS
QUALITY CONTROL.  THEY ALSO DO NOT REPORT WEATHER SUCH
AS PRECIPITATION OR FOG.

IAZ001>003-012>014-020>022-031>034-043>046-101900-
   NORTHWEST IOWA

CITY           SKY/WX    TMP DP  RH WIND       PRES   REMARKS
CARROLL *      PTSUNNY   23  21  93 SE9       30.31F FOG     WCI  13
CHEROKEE *     LGT SNOW  18  15  89 SE8       30.30F WCI   7
DENISON *      LGT SNOW  23  19  86 SE7       30.27F WCI  15
LE MARS *      CLOUDY    19  16  86 SE13G18   30.28F WCI   7
ORANGE CITY *  LGT SNOW  16  14  93 SE5       30.26F WCI   9
SHELDON *      LGT SNOW  14  12  92 E14       30.27F WCI  -1
SIOUX CITY     CLOUDY    24  19  81 SE15      30.27F WCI  11
6HR MIN TEMP:  20; 6HR MAX TEMP:  24; 6HR PCP:  0.08;

SPENCER        LGT SNOW  13  10  88 SE3       30.32F VSB 3/4
6HR MIN TEMP:   9; 6HR MAX TEMP:  13; 6HR PCP:  0.01;

STORM LAKE *   LGT SNOW  18  14  86 SE13      30.29F VSB 1   WCI   4
$$

IAZ055>058-069>071-079>083-090>094-101900-
   SOUTHWEST IOWA

CITY           SKY/WX    TMP DP  RH WIND       PRES   REMARKS
ATLANTIC *     CLOUDY    25  19  80 SE8       30.30F WCI  16
AUDUBON *      FLURRIES  23  19  86 SE8       30.29F WCI  14
CLARINDA *     CLOUDY    28  16  59 S10       30.33F WCI  19
COUNCIL BLFS * CLOUDY    27  18  69 SE15      30.26F WCI  15
CRESTON *      CLOUDY    25  18  74 SE10      30.31F WCI  15
HARLAN  *      CLOUDY    23  21  93 SE7       30.32F WCI  15
LAMONI         CLOUDY    28  12  51 SE8G17    30.32F WCI  20
6HR MIN TEMP:  23; 6HR MAX TEMP:  28;

RED OAK *      CLOUDY    28  16  59 S12       30.30F WCI  18
SHENANDOAH *   CLOUDY    28  16  59 SE13      30.31F WCI  18
$$

IAZ047>049-059>061-072>074-084-101900-
   CENTRAL IOWA

CITY           SKY/WX    TMP DP  RH WIND       PRES   REMARKS
AMES           LGT SNOW  23  21  92 SE9       30.35F FOG     WCI  13
6HR MIN TEMP:  20; 6HR MAX TEMP:  22; 6HR PCP: TRACE;

ANKENY *       CLOUDY    23  19  86 SE10      30.37F FOG     WCI  12
BOONE *        CLOUDY    21  19  93 SE13      30.32F FOG     WCI   9
CHARITON *     CLOUDY    25  19  80 SE8       30.35F WCI  16
DES MOINES     LGT SNOW  23  19  85 SE10      30.35F FOG     WCI  12
6HR MIN TEMP:  23; 6HR MAX TEMP:  24; 6HR PCP:  0.05;

GRINNELL*      LGT SNOW  23  18  80 S12       30.38F WCI  12
KNOXVILLE *    LGT SNOW  23  18  80 SE10      30.36F WCI  12
MARSHALLTOWN   LGT SNOW  22  18  85 SE12      30.36F FOG     WCI  10
6HR MIN TEMP:  20; 6HR MAX TEMP:  22; 6HR PCP: TRACE;

NEWTON *       FOG       21  19  93 SE13      30.37F VSB 3/4 WCI   9
PELLA *        LGT SNOW  23  20  88 S8        30.39F WCI  14
PERRY *        LGT SNOW  24  22  92 SE10      30.33F WCI  13
$$

IAZ004>006-015-016-023>025-035-036-101900-
   NORTH CENTRAL IOWA

CITY           SKY/WX    TMP DP  RH WIND       PRES   REMARKS
ALGONA *       LGT SNOW  16  12  86 SE8       30.33S WCI   5
CLARION *      CLOUDY    19  16  86 SE12      30.33F FOG     WCI   7
ESTHERVILLE    LGT SNOW  10   8  92 E8        30.34R VSB 1   WCI  -2
6HR MIN TEMP:   7; 6HR MAX TEMP:  10; 6HR PCP: TRACE;

FORT DODGE *   CLOUDY    19  16  86 SE6       30.34F VSB 3/4 WCI  11
MASON CITY     LGT SNOW  14  10  84 E9        30.36F FOG     WCI   2
6HR MIN TEMP:  11; 6HR MAX TEMP:  14; 6HR PCP: TRACE;

FOREST CITY *  LGT SNOW  18  12  79 SE9       30.33F WCI   6
WEBSTER CITY * LGT SNOW  21  19  93 SE13      30.32F VSB 3/4 WCI   9
IOWA FALLS *   LGT SNOW  21  18  86 E10       30.36F WCI  10
$$

IAZ007>011-017>019-026>030-037>042-050>054-066-101900-
   NORTHEAST IOWA

CITY           SKY/WX    TMP DP  RH WIND       PRES   REMARKS
CEDAR RAPIDS   CLOUDY    22  16  78 SE7       30.40F WCI  13
6HR MIN TEMP:  18; 6HR MAX TEMP:  23; 6HR PCP: TRACE;

CHARLES CITY * LGT SNOW  14  10  85 SE9       30.37F WCI   2
CLINTON *      CLOUDY    26  17  68 S5        30.46F WCI  20
DECORAH *      LGT SNOW  12   7  79 S5        30.38F WCI   4
DUBUQUE        CLOUDY    18  14  84 S3        30.42F
6HR MIN TEMP:  12; 6HR MAX TEMP:  19;

MONTICELLO *   MIX PCPN  21  14  73 SE6       30.42F WCI  14
OELWEIN *      CLOUDY    19  16  86 SE8       30.38F FOG     WCI   9
WATERLOO       LGT SNOW  20  15  81 SE7       30.38F WCI  11
6HR MIN TEMP:  17; 6HR MAX TEMP:  20; 6HR PCP:  0.01;

$$

IAZ064-065-067-068-078-101900-
   EAST CENTRAL IOWA

CITY           SKY/WX    TMP DP  RH WIND       PRES   REMARKS
DAVENPORT      CLOUDY    24  13  62 S6        30.45F WCI  17
6HR MIN TEMP:  19; 6HR MAX TEMP:  24;

IOWA CITY      CLOUDY    26  14  60 SE8       30.44F WCI  18
6HR MIN TEMP:  21; 6HR MAX TEMP:  26;

MUSCATINE *    CLOUDY    27  12  54 SE7       30.46F WCI  19
QUAD CITIES    CLOUDY    26  12  55 S6        30.46F WCI  19
6HR MIN TEMP:  21; 6HR MAX TEMP:  26;

$$

IAZ062-063-075>077-085>089-095>099-101900-
   SOUTHEAST IOWA

CITY           SKY/WX    TMP DP  RH WIND       PRES   REMARKS
BURLINGTON     CLOUDY    28  12  51 S7        30.44F WCI  21
6HR MIN TEMP:  22; 6HR MAX TEMP:  28;

FAIRFIELD *    HAZE      25  18  74 S12       30.41F VSB 1   WCI  14
FORT MADISON * FLURRIES  27  14  59 S10       30.45F WCI  17
KEOKUK *       CLOUDY    28  10  47 SE9       30.44F WCI  20
OSKALOOSA *    LGT SNOW  23  20  90 S12       30.41F VSB 3/4 WCI  11
CENTERVILLE *    N/A     27  18  69 E9        30.38F WCI  17
OTTUMWA        LGT SNOW  23  19  85 SE9       30.40F VSB 1   WCI  13
6HR MIN TEMP:  22; 6HR MAX TEMP:  26; 6HR PCP: TRACE;

WASHINGTON *   MOSUNNY   27  16  63 S10       30.44F HAZE    WCI  17
$$

ABBREVIATIONS USED IN REMARKS
   TC - TEMPERATURES IN CELSIUS
  WCI - WIND CHILL INDEX
   HX - HEAT INDEX
  VSB - VISIBILITY
$$





USA.gov is the U.S. government's official web portal to all federal, state and local government web resources and services.